BUCK KNOLL WA US current weather conditions

sailwx.info

Wind from 035 at 1 knots gusting 6

Air temperature 21.7° C
Dewpoint 11.4° C

Last reported at 2019-Jun-16 22:09 UTC.
Time now 2019-Jun-17 14:38 UTC

Location: N 48°02' W 123°19'.
View on Google Maps.

See reports from other nearby stations

  
Tides and Currents Weather Stations Pressure Air Temp Water Temp Dewpoint Dewpoint Depression Visibility Wind Speed Wind Dir Waves Ship Positions
date/time (UTC)wind fromknots sea level pressurealtimeterstation pressurevisibilityair tempwater tempwave heightnotes
2019-Jun-16 22:09 035 1 gusting 6 21.7
2019-Jun-16 21:09 009 3 gusting 8 21.1
2019-Jun-16 20:09 359 3 gusting 8 21.7
2019-Jun-16 19:09 017 2 gusting 10 21.1
2019-Jun-16 18:09 011 2 gusting 6 20.6
2019-Jun-16 17:09 008 2 gusting 6 18.9
2019-Jun-16 16:09 358 2 gusting 7 20.6
2019-Jun-16 15:09 168 0 gusting 2 16.7
2019-Jun-16 14:09 16.7
2019-Jun-16 13:09 178 2 gusting 5 11.7
2019-Jun-16 12:09 288 0 gusting 3 11.7
2019-Jun-16 11:09 11.7
2019-Jun-16 10:09 11.7
2019-Jun-16 09:09 12.8
2019-Jun-16 08:09 142 1 gusting 3 12.8
2019-Jun-16 07:09 14.4
2019-Jun-16 06:09 210 2 gusting 4 15.0
2019-Jun-16 05:09 13.9
2019-Jun-16 04:09 195 1 gusting 2 13.3
2019-Jun-16 03:09 13.9
2019-Jun-16 02:09 038 2 gusting 5 15.6
2019-Jun-16 01:09 052 2 gusting 6 19.4
2019-Jun-16 00:09 343 0 gusting 6 21.1
2019-Jun-15 23:09 351 1 gusting 6 21.1
2019-Jun-15 22:09 017 3 gusting 6 20.6
2019-Jun-15 21:09 014 3 gusting 6 20.6
2019-Jun-15 20:09 355 2 gusting 7 20.0
2019-Jun-15 19:09 011 3 gusting 6 20.0
2019-Jun-15 18:09 010 2 gusting 6 18.9
2019-Jun-15 17:09 002 2 gusting 5 16.7
2019-Jun-15 16:09 008 2 gusting 5 13.3
2019-Jun-15 15:09 088 1 gusting 4 12.8
2019-Jun-15 14:09 149 2 gusting 4 12.2